Location: Unspecified
(47.5840°N, 122.3000°W)
Time: 00:42:48
(UTC+00:00)

USA 59 Rocket - Pass Details

Date: 09 December 2025
Orbit: 369 x 1675 km, 63.3° (Epoch: 19 January)

Event Time Altitude Azimuth Distance (km) Brightness Sun altitude
Exits shadow 13:00:20 35° 159° (SSE) 962 1.2 -26.8°
Drops below altitude 10° 13:03:22 10° 149° (SSE) 2,154 3.2 -26.3°
Sets 13:06:10 0° 148° (SSE) 3,295 4.3 -25.8°
